#Datum;Uhrzeit;WR;Pac;DaySum;Status;WR;Pac;DaySum;Status;Pdc1;Udc;Temp;WR;Pac;DaySum;Status;Pdc1;Udc;Temp;WR;Pac;DaySum;Status;Pdc1;Udc;Temp;WR;Pac;DaySum;Status;Pdc1;Pdc2;Udc1;Udc2;Temp;WR;Pac;DaySum;Status;Pdc1;Pdc2;Udc1;Udc2;Temp;WR;Pac;DaySum;Status;Pdc1;Udc;Temp;WR;Pac;DaySum;Status;Pdc1;Udc;Temp;WR;Pac;DaySum;Status;Pdc1;Udc;Temp
12.11.19;23:55:00;1;330;11715;0;2;0;2270;0;0;0;0;3;0;1361;0;0;0;0;4;0;1883;0;0;0;0;5;0;5106;0;0;0;0;0;0;6;0;3608;0;0;0;0;0;0;7;0;2260;0;0;0;0;8;0;2277;0;0;0;0;9;0;1173;0;0;0;0
12.11.19;23:50:00;1;340;11688;0;2;0;2270;0;0;0;0;3;0;1361;0;0;0;0;4;0;1883;0;0;0;0;5;0;5106;0;0;0;0;0;0;6;0;3608;0;0;0;0;0;0;7;0;2260;0;0;0;0;8;0;2277;0;0;0;0;9;0;1173;0;0;0;0
12.11.19;23:45:00;1;373;11658;0;2;0;2270;0;0;0;0;3;0;1361;0;0;0;0;4;0;1883;0;0;0;0;5;0;5106;0;0;0;0;0;0;6;0;3608;0;0;0;0;0;0;7;0;2260;0;0;0;0;8;0;2277;0;0;0;0;9;0;1173;0;0;0;0
12.11.19;23:40:00;1;365;11627;0;2;0;2270;0;0;0;0;3;0;1361;0;0;0;0;4;0;1883;0;0;0;0;5;0;5106;0;0;0;0;0;0;6;0;3608;0;0;0;0;0;0;7;0;2260;0;0;0;0;8;0;2277;0;0;0;0;9;0;1173;0;0;0;0
12.11.19;23:35:00;1;350;11596;0;2;0;2270;0;0;0;0;3;0;1361;0;0;0;0;4;0;1883;0;0;0;0;5;0;5106;0;0;0;0;0;0;6;0;3608;0;0;0;0;0;0;7;0;2260;0;0;0;0;8;0;2277;0;0;0;0;9;0;1173;0;0;0;0
12.11.19;23:30:00;1;337;11567;0;2;0;2270;0;0;0;0;3;0;1361;0;0;0;0;4;0;1883;0;0;0;0;5;0;5106;0;0;0;0;0;0;6;0;3608;0;0;0;0;0;0;7;0;2260;0;0;0;0;8;0;2277;0;0;0;0;9;0;1173;0;0;0;0
12.11.19;23:25:00;1;321;11538;0;2;0;2270;0;0;0;0;3;0;1361;0;0;0;0;4;0;1883;0;0;0;0;5;0;5106;0;0;0;0;0;0;6;0;3608;0;0;0;0;0;0;7;0;2260;0;0;0;0;8;0;2277;0;0;0;0;9;0;1173;0;0;0;0
12.11.19;23:20:00;1;312;11511;0;2;0;2270;0;0;0;0;3;0;1361;0;0;0;0;4;0;1883;0;0;0;0;5;0;5106;0;0;0;0;0;0;6;0;3608;0;0;0;0;0;0;7;0;2260;0;0;0;0;8;0;2277;0;0;0;0;9;0;1173;0;0;0;0
12.11.19;23:15:00;1;313;11485;0;2;0;2270;0;0;0;0;3;0;1361;0;0;0;0;4;0;1883;0;0;0;0;5;0;5106;0;0;0;0;0;0;6;0;3608;0;0;0;0;0;0;7;0;2260;0;0;0;0;8;0;2277;0;0;0;0;9;0;1173;0;0;0;0
12.11.19;23:10:00;1;362;11459;0;2;0;2270;0;0;0;0;3;0;1361;0;0;0;0;4;0;1883;0;0;0;0;5;0;5106;0;0;0;0;0;0;6;0;3608;0;0;0;0;0;0;7;0;2260;0;0;0;0;8;0;2277;0;0;0;0;9;0;1173;0;0;0;0
12.11.19;23:05:00;1;274;11435;0;2;0;2270;0;0;0;0;3;0;1361;0;0;0;0;4;0;1883;0;0;0;0;5;0;5106;0;0;0;0;0;0;6;0;3608;0;0;0;0;0;0;7;0;2260;0;0;0;0;8;0;2277;0;0;0;0;9;0;1173;0;0;0;0
12.11.19;23:00:00;1;320;11413;0;2;0;2270;0;0;0;0;3;0;1361;0;0;0;0;4;0;1883;0;0;0;0;5;0;5106;0;0;0;0;0;0;6;0;3608;0;0;0;0;0;0;7;0;2260;0;0;0;0;8;0;2277;0;0;0;0;9;0;1173;0;0;0;0
12.11.19;22:55:00;1;275;11385;0;2;0;2270;0;0;0;0;3;0;1361;0;0;0;0;4;0;1883;0;0;0;0;5;0;5106;2;0;0;0;0;0;6;0;3608;2;0;0;0;0;0;7;0;2260;0;0;0;0;8;0;2277;0;0;0;0;9;0;1173;0;0;0;0
12.11.19;22:50:00;1;272;11362;0;2;0;2270;0;0;0;0;3;0;1361;0;0;0;0;4;0;1883;0;0;0;0;5;0;5106;2;0;0;0;0;0;6;0;3608;2;0;0;0;0;0;7;0;2260;0;0;0;0;8;0;2277;0;0;0;0;9;0;1173;0;0;0;0
12.11.19;22:45:00;1;306;11339;0;2;0;2270;0;0;0;0;3;0;1361;0;0;0;0;4;0;1883;0;0;0;0;5;0;5106;2;0;0;0;0;0;6;0;3608;2;0;0;0;0;0;7;0;2260;0;0;0;0;8;0;2277;0;0;0;0;9;0;1173;0;0;0;0
12.11.19;22:40:00;1;425;11313;0;2;0;2270;0;0;0;0;3;0;1361;0;0;0;0;4;0;1883;0;0;0;0;5;0;5106;2;0;0;0;0;0;6;0;3608;2;0;0;0;0;0;7;0;2260;0;0;0;0;8;0;2277;0;0;0;0;9;0;1173;0;0;0;0
12.11.19;22:35:00;1;508;11276;0;2;0;2270;0;0;0;0;3;0;1361;0;0;0;0;4;0;1883;0;0;0;0;5;0;5106;2;0;0;0;0;0;6;0;3608;2;0;0;0;0;0;7;0;2260;0;0;0;0;8;0;2277;0;0;0;0;9;0;1173;0;0;0;0
12.11.19;22:30:00;1;587;11233;0;2;0;2270;0;0;0;0;3;0;1361;0;0;0;0;4;0;1883;0;0;0;0;5;0;5106;2;0;0;0;0;0;6;0;3608;2;0;0;0;0;0;7;0;2260;0;0;0;0;8;0;2277;0;0;0;0;9;0;1173;0;0;0;0
12.11.19;22:25:00;1;614;11183;0;2;0;2270;0;0;0;0;3;0;1361;0;0;0;0;4;0;1883;0;0;0;0;5;0;5106;2;0;0;0;0;0;6;0;3608;2;0;0;0;0;0;7;0;2260;0;0;0;0;8;0;2277;0;0;0;0;9;0;1173;0;0;0;0
12.11.19;22:20:00;1;650;11131;0;2;0;2270;0;0;0;0;3;0;1361;0;0;0;0;4;0;1883;0;0;0;0;5;0;5106;2;0;0;0;0;0;6;0;3608;2;0;0;0;0;0;7;0;2260;0;0;0;0;8;0;2277;0;0;0;0;9;0;1173;0;0;0;0
12.11.19;22:15:00;1;602;11076;0;2;0;2270;0;0;0;0;3;0;1361;0;0;0;0;4;0;1883;0;0;0;0;5;0;5106;2;0;0;0;0;0;6;0;3608;2;0;0;0;0;0;7;0;2260;0;0;0;0;8;0;2277;0;0;0;0;9;0;1173;0;0;0;0
12.11.19;22:10:00;1;600;11027;0;2;0;2270;0;0;0;0;3;0;1361;0;0;0;0;4;0;1883;0;0;0;0;5;0;5106;2;0;0;0;0;0;6;0;3608;2;0;0;0;0;0;7;0;2260;0;0;0;0;8;0;2277;0;0;0;0;9;0;1173;0;0;0;0
12.11.19;22:05:00;1;621;10976;0;2;0;2270;0;0;0;0;3;0;1361;0;0;0;0;4;0;1883;0;0;0;0;5;0;5106;2;0;0;0;0;0;6;0;3608;2;0;0;0;0;0;7;0;2260;0;0;0;0;8;0;2277;0;0;0;0;9;0;1173;0;0;0;0
12.11.19;22:00:00;1;615;10924;0;2;0;2270;0;0;0;0;3;0;1361;0;0;0;0;4;0;1883;0;0;0;0;5;0;5106;2;0;0;0;0;0;6;0;3608;2;0;0;0;0;0;7;0;2260;0;0;0;0;8;0;2277;0;0;0;0;9;0;1173;0;0;0;0
12.11.19;21:55:00;1;633;10873;0;2;0;2270;0;0;0;0;3;0;1361;0;0;0;0;4;0;1883;0;0;0;0;5;0;5106;2;0;0;0;0;0;6;0;3608;2;0;0;0;0;0;7;0;2260;0;0;0;0;8;0;2277;0;0;0;0;9;0;1173;0;0;0;0
12.11.19;21:50:00;1;683;10819;0;2;0;2270;0;0;0;0;3;0;1361;0;0;0;0;4;0;1883;0;0;0;0;5;0;5106;2;0;0;0;0;0;6;0;3608;2;0;0;0;0;0;7;0;2260;0;0;0;0;8;0;2277;0;0;0;0;9;0;1173;0;0;0;0
12.11.19;21:45:00;1;639;10763;0;2;0;2270;0;0;0;0;3;0;1361;0;0;0;0;4;0;1883;0;0;0;0;5;0;5106;2;0;0;0;0;0;6;0;3608;2;0;0;0;0;0;7;0;2260;0;0;0;0;8;0;2277;0;0;0;0;9;0;1173;0;0;0;0
12.11.19;21:40:00;1;804;10709;0;2;0;2270;0;0;0;0;3;0;1361;0;0;0;0;4;0;1883;0;0;0;0;5;0;5106;2;0;0;0;0;0;6;0;3608;2;0;0;0;0;0;7;0;2260;0;0;0;0;8;0;2277;0;0;0;0;9;0;1173;0;0;0;0
12.11.19;21:35:00;1;590;10655;0;2;0;2270;0;0;0;0;3;0;1361;0;0;0;0;4;0;1883;0;0;0;0;5;0;5106;2;0;0;0;0;0;6;0;3608;2;0;0;0;0;0;7;0;2260;0;0;0;0;8;0;2277;0;0;0;0;9;0;1173;0;0;0;0
12.11.19;21:30:00;1;1138;10589;0;2;0;2270;0;0;0;0;3;0;1361;0;0;0;0;4;0;1883;0;0;0;0;5;0;5106;2;0;0;0;0;0;6;0;3608;2;0;0;0;0;0;7;0;2260;0;0;0;0;8;0;2277;0;0;0;0;9;0;1173;0;0;0;0
12.11.19;21:25:00;1;578;10507;0;2;0;2270;0;0;0;0;3;0;1361;0;0;0;0;4;0;1883;0;0;0;0;5;0;5106;2;0;0;0;0;0;6;0;3608;2;0;0;0;0;0;7;0;2260;0;0;0;0;8;0;2277;0;0;0;0;9;0;1173;0;0;0;0
12.11.19;21:20:00;1;553;10458;0;2;0;2270;0;0;0;0;3;0;1361;0;0;0;0;4;0;1883;0;0;0;0;5;0;5106;2;0;0;0;0;0;6;0;3608;2;0;0;0;0;0;7;0;2260;0;0;0;0;8;0;2277;0;0;0;0;9;0;1173;0;0;0;0
12.11.19;21:15:00;1;521;10413;0;2;0;2270;0;0;0;0;3;0;1361;0;0;0;0;4;0;1883;0;0;0;0;5;0;5106;2;0;0;0;0;0;6;0;3608;2;0;0;0;0;0;7;0;2260;0;0;0;0;8;0;2277;0;0;0;0;9;0;1173;0;0;0;0
12.11.19;21:10:00;1;609;10369;0;2;0;2270;0;0;0;0;3;0;1361;0;0;0;0;4;0;1883;0;0;0;0;5;0;5106;2;0;0;0;0;0;6;0;3608;2;0;0;0;0;0;7;0;2260;0;0;0;0;8;0;2277;0;0;0;0;9;0;1173;0;0;0;0
12.11.19;21:05:00;1;662;10319;0;2;0;2270;0;0;0;0;3;0;1361;0;0;0;0;4;0;1883;0;0;0;0;5;0;5106;2;0;0;0;0;0;6;0;3608;2;0;0;0;0;0;7;0;2260;0;0;0;0;8;0;2277;0;0;0;0;9;0;1173;0;0;0;0
12.11.19;21:00:00;1;832;10263;0;2;0;2270;0;0;0;0;3;0;1361;0;0;0;0;4;0;1883;0;0;0;0;5;0;5106;2;0;0;0;0;0;6;0;3608;2;0;0;0;0;0;7;0;2260;0;0;0;0;8;0;2277;0;0;0;0;9;0;1173;0;0;0;0
12.11.19;20:55:00;1;958;10188;0;2;0;2270;0;0;0;0;3;0;1361;0;0;0;0;4;0;1883;0;0;0;0;5;0;5106;2;0;0;0;0;0;6;0;3608;2;0;0;0;0;0;7;0;2260;0;0;0;0;8;0;2277;0;0;0;0;9;0;1173;0;0;0;0
12.11.19;20:50:00;1;951;10108;0;2;0;2270;0;0;0;0;3;0;1361;0;0;0;0;4;0;1883;0;0;0;0;5;0;5106;2;0;0;0;0;0;6;0;3608;2;0;0;0;0;0;7;0;2260;0;0;0;0;8;0;2277;0;0;0;0;9;0;1173;0;0;0;0
12.11.19;20:45:00;1;890;10029;0;2;0;2270;0;0;0;0;3;0;1361;0;0;0;0;4;0;1883;0;0;0;0;5;0;5106;2;0;0;0;0;0;6;0;3608;2;0;0;0;0;0;7;0;2260;0;0;0;0;8;0;2277;0;0;0;0;9;0;1173;0;0;0;0
12.11.19;20:40:00;1;922;9953;0;2;0;2270;0;0;0;0;3;0;1361;0;0;0;0;4;0;1883;0;0;0;0;5;0;5106;2;0;0;0;0;0;6;0;3608;2;0;0;0;0;0;7;0;2260;0;0;0;0;8;0;2277;0;0;0;0;9;0;1173;0;0;0;0
12.11.19;20:35:00;1;2181;9879;0;2;0;2270;0;0;0;0;3;0;1361;0;0;0;0;4;0;1883;0;0;0;0;5;0;5106;2;0;0;0;0;0;6;0;3608;2;0;0;0;0;0;7;0;2260;0;0;0;0;8;0;2277;0;0;0;0;9;0;1173;0;0;0;0
12.11.19;20:30:00;1;1213;9692;0;2;0;2270;0;0;0;0;3;0;1361;0;0;0;0;4;0;1883;0;0;0;0;5;0;5106;2;0;0;0;0;0;6;0;3608;2;0;0;0;0;0;7;0;2260;0;0;0;0;8;0;2277;0;0;0;0;9;0;1173;0;0;0;0
12.11.19;20:25:00;1;925;9589;0;2;0;2270;0;0;0;0;3;0;1361;0;0;0;0;4;0;1883;0;0;0;0;5;0;5106;2;0;0;0;0;0;6;0;3608;2;0;0;0;0;0;7;0;2260;0;0;0;0;8;0;2277;0;0;0;0;9;0;1173;0;0;0;0
12.11.19;20:20:00;1;1545;9511;0;2;0;2270;0;0;0;0;3;0;1361;0;0;0;0;4;0;1883;0;0;0;0;5;0;5106;2;0;0;0;0;0;6;0;3608;2;0;0;0;0;0;7;0;2260;0;0;0;0;8;0;2277;0;0;0;0;9;0;1173;0;0;0;0
12.11.19;20:15:00;1;1668;9350;0;2;0;2270;0;0;0;0;3;0;1361;0;0;0;0;4;0;1883;0;0;0;0;5;0;5106;2;0;0;0;0;0;6;0;3608;2;0;0;0;0;0;7;0;2260;0;0;0;0;8;0;2277;0;0;0;0;9;0;1173;0;0;0;0
12.11.19;20:10:00;1;952;9242;0;2;0;2270;0;0;0;0;3;0;1361;0;0;0;0;4;0;1883;0;0;0;0;5;0;5106;2;0;0;0;0;0;6;0;3608;2;0;0;0;0;0;7;0;2260;0;0;0;0;8;0;2277;0;0;0;0;9;0;1173;0;0;0;0
12.11.19;20:05:00;1;1849;9162;0;2;0;2270;0;0;0;0;3;0;1361;0;0;0;0;4;0;1883;0;0;0;0;5;0;5106;2;0;0;0;0;0;6;0;3608;2;0;0;0;0;0;7;0;2260;0;0;0;0;8;0;2277;0;0;0;0;9;0;1173;0;0;0;0
12.11.19;20:00:00;1;1348;9004;0;2;0;2270;0;0;0;0;3;0;1361;0;0;0;0;4;0;1883;0;0;0;0;5;0;5106;2;0;0;0;0;0;6;0;3608;2;0;0;0;0;0;7;0;2260;0;0;0;0;8;0;2277;0;0;0;0;9;0;1173;0;0;0;0
12.11.19;19:55:00;1;2317;8877;0;2;0;2270;0;0;0;0;3;0;1361;0;0;0;0;4;0;1883;0;0;0;0;5;0;5106;2;0;0;0;0;0;6;0;3608;2;0;0;0;0;0;7;0;2260;0;0;0;0;8;0;2277;0;0;0;0;9;0;1173;0;0;0;0
12.11.19;19:50:00;1;1616;8699;0;2;0;2270;0;0;0;0;3;0;1361;0;0;0;0;4;0;1883;0;0;0;0;5;0;5106;2;0;0;0;0;0;6;0;3608;2;0;0;0;0;0;7;0;2260;0;0;0;0;8;0;2277;0;0;0;0;9;0;1173;0;0;0;0
12.11.19;19:45:00;1;1990;8555;0;2;0;2270;0;0;0;0;3;0;1361;0;0;0;0;4;0;1883;0;0;0;0;5;0;5106;2;0;0;0;0;0;6;0;3608;2;0;0;0;0;0;7;0;2260;0;0;0;0;8;0;2277;0;0;0;0;9;0;1173;0;0;0;0
12.11.19;19:40:00;1;1511;8356;0;2;0;2270;0;0;0;0;3;0;1361;0;0;0;0;4;0;1883;0;0;0;0;5;0;5106;2;0;0;0;0;0;6;0;3608;2;0;0;0;0;0;7;0;2260;0;0;0;0;8;0;2277;0;0;0;0;9;0;1173;0;0;0;0
12.11.19;19:35:00;1;1088;8213;0;2;0;2270;0;0;0;0;3;0;1361;0;0;0;0;4;0;1883;0;0;0;0;5;0;5106;2;0;0;0;0;0;6;0;3608;2;0;0;0;0;0;7;0;2260;0;0;0;0;8;0;2277;0;0;0;0;9;0;1173;0;0;0;0
12.11.19;19:30:00;1;1695;8123;0;2;0;2270;0;0;0;0;3;0;1361;0;0;0;0;4;0;1883;0;0;0;0;5;0;5106;2;0;0;0;0;0;6;0;3608;2;0;0;0;0;0;7;0;2260;0;0;0;0;8;0;2277;0;0;0;0;9;0;1173;0;0;0;0
12.11.19;19:25:00;1;1359;8011;0;2;0;2270;0;0;0;0;3;0;1361;0;0;0;0;4;0;1883;0;0;0;0;5;0;5106;2;0;0;0;0;0;6;0;3608;2;0;0;0;0;0;7;0;2260;0;0;0;0;8;0;2277;0;0;0;0;9;0;1173;0;0;0;0
12.11.19;19:20:00;1;1094;7903;0;2;0;2270;0;0;0;0;3;0;1361;0;0;0;0;4;0;1883;0;0;0;0;5;0;5106;2;0;0;0;0;0;6;0;3608;2;0;0;0;0;0;7;0;2260;0;0;0;0;8;0;2277;0;0;0;0;9;0;1173;0;0;0;0
12.11.19;19:15:00;1;907;7820;0;2;0;2270;0;0;0;0;3;0;1361;0;0;0;0;4;0;1883;0;0;0;0;5;0;5106;2;0;0;0;0;0;6;0;3608;2;0;0;0;0;0;7;0;2260;0;0;0;0;8;0;2277;0;0;0;0;9;0;1173;0;0;0;0
12.11.19;19:10:00;1;1859;7743;0;2;0;2270;0;0;0;0;3;0;1361;0;0;0;0;4;0;1883;0;0;0;0;5;0;5106;2;0;0;0;0;0;6;0;3608;2;0;0;0;0;0;7;0;2260;0;0;0;0;8;0;2277;0;0;0;0;9;0;1173;0;0;0;0
12.11.19;19:05:00;1;2430;7613;0;2;0;2270;0;0;0;0;3;0;1361;0;0;0;0;4;0;1883;0;0;0;0;5;0;5106;2;0;0;0;0;0;6;0;3608;2;0;0;0;0;0;7;0;2260;0;0;0;0;8;0;2277;0;0;0;0;9;0;1173;0;0;0;0
12.11.19;19:00:00;1;2987;7353;0;2;0;2270;0;0;0;0;3;0;1361;0;0;0;0;4;0;1883;0;0;0;0;5;0;5106;2;0;0;0;0;0;6;0;3608;2;0;0;0;0;0;7;0;2260;0;0;0;0;8;0;2277;0;0;0;0;9;0;1173;0;0;0;0
12.11.19;18:55:00;1;1412;7115;0;2;0;2270;0;0;0;0;3;0;1361;0;0;0;0;4;0;1883;0;0;0;0;5;0;5106;2;0;0;0;0;0;6;0;3608;2;0;0;0;0;0;7;0;2260;0;0;0;0;8;0;2277;0;0;0;0;9;0;1173;0;0;0;0
12.11.19;18:50:00;1;972;7026;0;2;0;2270;0;0;0;0;3;0;1361;0;0;0;0;4;0;1883;0;0;0;0;5;0;5106;2;0;0;0;0;0;6;0;3608;2;0;0;0;0;0;7;0;2260;0;0;0;0;8;0;2277;0;0;0;0;9;0;1173;0;0;0;0
12.11.19;18:45:00;1;823;6948;0;2;0;2270;0;0;0;0;3;0;1361;0;0;0;0;4;0;1883;0;0;0;0;5;0;5106;2;0;0;0;0;0;6;0;3608;2;0;0;0;0;0;7;0;2260;0;0;0;0;8;0;2277;0;0;0;0;9;0;1173;0;0;0;0
12.11.19;18:40:00;1;856;6879;0;2;0;2270;0;0;0;0;3;0;1361;0;0;0;0;4;0;1883;0;0;0;0;5;0;5106;2;0;0;0;0;0;6;0;3608;2;0;0;0;0;0;7;0;2260;0;0;0;0;8;0;2277;0;0;0;0;9;0;1173;0;0;0;0
12.11.19;18:35:00;1;836;6807;0;2;0;2270;0;0;0;0;3;0;1361;0;0;0;0;4;0;1883;0;0;0;0;5;0;5106;2;0;0;0;0;0;6;0;3608;2;0;0;0;0;0;7;0;2260;0;0;0;0;8;0;2277;0;0;0;0;9;0;1173;0;0;0;0
12.11.19;18:30:00;1;737;6741;0;2;0;2270;0;0;0;0;3;0;1361;0;0;0;0;4;0;1883;0;0;0;0;5;0;5106;2;0;0;0;0;0;6;0;3608;2;0;0;0;0;0;7;0;2260;0;0;0;0;8;0;2277;0;0;0;0;9;0;1173;0;0;0;0
12.11.19;18:25:00;1;798;6676;0;2;0;2270;0;0;0;0;3;0;1361;0;0;0;0;4;0;1883;0;0;0;0;5;0;5106;2;0;0;0;0;0;6;0;3608;2;0;0;0;0;0;7;0;2260;0;0;0;0;8;0;2277;0;0;0;0;9;0;1173;0;0;0;0
12.11.19;18:20:00;1;1029;6607;0;2;0;2270;0;0;0;0;3;0;1361;0;0;0;0;4;0;1883;0;0;0;0;5;0;5106;2;0;0;0;0;0;6;0;3608;2;0;0;0;0;0;7;0;2260;0;0;0;0;8;0;2277;0;0;0;0;9;0;1173;0;0;0;0
12.11.19;18:15:00;1;929;6520;0;2;0;2270;0;0;0;0;3;0;1361;0;0;0;0;4;0;1883;0;0;0;0;5;0;5106;2;0;0;0;0;0;6;0;3608;2;0;0;0;0;0;7;0;2260;0;0;0;0;8;0;2277;0;0;0;0;9;0;1173;0;0;0;0
12.11.19;18:10:00;1;856;6443;0;2;0;2270;0;0;0;0;3;0;1361;0;0;0;0;4;0;1883;0;0;0;0;5;0;5106;2;0;0;0;0;0;6;0;3608;2;0;0;0;0;0;7;0;2260;0;0;0;0;8;0;2277;0;0;0;0;9;0;1173;0;0;0;0
12.11.19;18:05:00;1;645;6374;0;2;0;2270;0;0;0;0;3;0;1361;0;0;0;0;4;0;1883;0;0;0;0;5;0;5106;2;0;0;0;0;0;6;0;3608;2;0;0;0;0;0;7;0;2260;0;0;0;0;8;0;2277;0;0;0;0;9;0;1173;0;0;0;0
12.11.19;18:00:00;1;682;6320;0;2;0;2270;0;0;0;0;3;0;1361;0;0;0;0;4;0;1883;0;0;0;0;5;0;5106;2;0;0;0;0;0;6;0;3608;2;0;0;0;0;0;7;0;2260;0;0;0;0;8;0;2277;0;0;0;0;9;0;1173;0;0;0;0
12.11.19;17:55:00;1;633;6266;0;2;0;2270;0;0;0;0;3;0;1361;0;0;0;0;4;0;1883;0;0;0;0;5;0;5106;2;0;0;0;0;0;6;0;3608;2;0;0;0;0;0;7;0;2260;0;0;0;0;8;0;2277;0;0;0;0;9;0;1173;0;0;0;0
12.11.19;17:50:00;1;1220;6213;0;2;0;2270;0;0;0;0;3;0;1361;0;0;0;0;4;0;1883;0;0;0;0;5;0;5106;2;0;0;0;0;0;6;0;3608;2;0;0;0;0;0;7;0;2260;0;0;0;0;8;0;2277;0;0;0;0;9;0;1173;0;0;0;0
12.11.19;17:45:00;1;1227;6106;0;2;0;2270;0;0;0;0;3;0;1361;0;0;0;0;4;0;1883;0;0;0;0;5;0;5106;2;0;0;0;0;0;6;0;3608;2;0;0;0;0;0;7;0;2260;0;0;0;0;8;0;2277;0;0;0;0;9;0;1173;0;0;0;0
12.11.19;17:40:00;1;1403;5997;0;2;0;2270;0;0;0;0;3;0;1361;0;0;0;0;4;0;1883;0;0;0;0;5;0;5106;2;0;0;0;0;0;6;0;3608;2;0;0;0;0;0;7;0;2260;0;0;0;0;8;0;2277;0;0;0;0;9;0;1173;0;0;0;0
12.11.19;17:35:00;1;2484;5847;0;2;0;2270;0;0;0;0;3;0;1361;0;0;0;0;4;0;1883;0;0;0;0;5;0;5106;2;0;0;0;0;0;6;0;3608;2;0;0;0;0;0;7;0;2260;0;0;0;0;8;0;2277;0;0;0;0;9;0;1173;0;0;0;0
12.11.19;17:30:00;1;2520;5638;0;2;0;2270;0;0;0;0;3;0;1361;0;0;0;0;4;0;1883;0;0;0;0;5;0;5106;2;0;0;0;0;0;6;0;3608;2;0;0;0;0;0;7;0;2260;0;0;0;0;8;0;2277;0;0;0;0;9;0;1173;0;0;0;0
12.11.19;17:25:00;1;4799;5397;0;2;0;2270;0;0;0;0;3;0;1361;0;0;0;0;4;0;1883;0;0;0;0;5;0;5106;2;0;0;0;0;0;6;0;3608;2;0;0;0;0;0;7;0;2260;0;0;0;0;8;0;2277;0;0;0;0;9;0;1173;0;0;0;0
12.11.19;17:20:00;1;2794;5007;0;2;0;2270;0;0;0;0;3;0;1361;0;0;0;0;4;0;1883;0;0;0;0;5;0;5106;2;0;0;0;0;0;6;0;3608;2;0;0;0;0;0;7;0;2260;0;0;0;0;8;0;2277;0;0;0;0;9;0;1173;0;0;0;0
12.11.19;17:15:00;1;410;4810;0;2;0;2270;0;0;0;0;3;0;1361;0;0;0;0;4;0;1883;0;0;0;0;5;0;5106;2;0;0;0;0;0;6;0;3608;2;0;0;0;0;0;7;0;2260;0;0;0;0;8;0;2277;0;0;0;0;9;0;1173;0;0;0;0
12.11.19;17:10:00;1;404;4773;0;2;0;2270;0;0;0;0;3;0;1361;0;0;0;0;4;0;1883;0;0;0;0;5;0;5106;2;0;0;0;0;0;6;0;3608;2;0;0;0;0;0;7;0;2260;0;0;0;0;8;0;2277;0;0;0;0;9;0;1173;0;0;0;0
12.11.19;17:05:00;1;383;4738;0;2;0;2270;0;0;0;0;3;0;1361;0;0;0;0;4;0;1883;0;0;0;0;5;0;5106;2;0;0;0;0;0;6;0;3608;2;0;0;0;0;0;7;0;2260;0;0;0;0;8;0;2277;0;0;0;0;9;0;1173;0;0;0;0
12.11.19;17:00:00;1;363;4706;0;2;0;2270;0;0;0;0;3;0;1361;0;0;0;0;4;0;1883;0;0;0;0;5;0;5106;2;0;0;0;0;0;6;0;3608;2;0;0;0;0;0;7;0;2260;0;0;0;0;8;0;2277;0;0;0;0;9;0;1173;0;0;0;0
12.11.19;16:55:00;1;390;4675;0;2;0;2270;0;0;0;0;3;0;1361;0;0;0;0;4;0;1883;0;0;0;0;5;0;5106;2;0;0;0;0;0;6;0;3608;2;0;0;0;0;0;7;0;2260;0;0;0;0;8;0;2277;0;0;0;0;9;0;1173;0;0;0;0
12.11.19;16:50:00;1;395;4642;0;2;0;2270;0;0;0;0;3;0;1361;0;0;0;0;4;0;1883;0;0;0;0;5;0;5106;2;0;0;0;0;0;6;0;3608;2;0;0;0;0;0;7;0;2260;0;0;0;0;8;0;2277;0;0;0;0;9;0;1173;0;0;0;0
12.11.19;16:45:00;1;399;4609;0;2;0;2270;0;0;0;0;3;0;1361;0;0;36;2;4;0;1883;0;0;0;0;5;0;5106;2;0;0;0;0;0;6;0;3608;2;0;0;0;0;0;7;0;2260;0;0;0;0;8;0;2277;0;0;0;0;9;0;1173;0;0;0;0
12.11.19;16:40:00;1;559;4569;0;2;0;2270;0;0;242;10;3;0;1361;6;0;309;15;4;0;1883;0;0;0;0;5;0;5106;2;0;0;0;0;0;6;0;3608;0;0;0;0;0;0;7;0;2260;0;0;0;0;8;0;2277;0;0;0;0;9;0;1173;0;0;0;0
12.11.19;16:35:00;1;353;4532;0;2;0;2270;6;0;285;12;3;0;1361;6;0;311;15;4;0;1883;0;0;41;6;5;0;5106;2;0;0;0;0;0;6;0;3608;1;0;0;0;0;0;7;0;2260;0;0;0;0;8;0;2277;0;0;0;0;9;0;1173;0;0;0;0
12.11.19;16:30:00;1;398;4503;0;2;0;2270;6;0;311;12;3;0;1361;6;0;367;15;4;0;1883;1;0;93;11;5;0;5106;2;0;1;101;100;7;6;0;3608;2;0;0;0;0;4;7;0;2260;0;0;0;0;8;0;2277;0;0;0;0;9;0;1173;0;0;0;0
12.11.19;16:25:00;1;389;4469;0;2;0;2270;6;0;344;12;3;0;1361;6;0;414;15;4;0;1883;1;0;129;11;5;0;5106;2;0;0;335;332;23;6;0;3608;23;4;4;342;335;22;7;0;2260;0;0;176;10;8;0;2277;0;0;179;10;9;0;1173;2;0;277;10
12.11.19;16:20:00;1;405;4439;0;2;0;2270;6;0;369;12;3;0;1361;4;2;446;15;4;0;1883;1;0;167;11;5;0;5106;23;0;0;401;480;23;6;0;3608;23;4;4;399;324;22;7;0;2260;6;0;320;15;8;0;2277;6;0;326;15;9;0;1173;6;0;342;11
12.11.19;16:15:00;1;342;4407;0;2;0;2270;6;0;391;13;3;1;1361;3;5;447;16;4;0;1883;1;0;206;12;5;10;5106;1;0;0;410;642;23;6;0;3608;23;6;5;325;567;22;7;0;2260;6;0;394;15;8;0;2277;6;0;400;15;9;0;1173;6;0;417;11
12.11.19;16:10:00;1;387;4379;0;2;0;2270;6;0;404;13;3;1;1361;6;4;485;16;4;0;1883;1;0;227;12;5;13;5105;8;0;2;420;670;23;6;0;3608;1;4;6;497;582;23;7;0;2260;6;1;332;12;8;0;2277;6;1;338;12;9;1;1173;6;0;461;11
12.11.19;16:05:00;1;397;4346;0;2;1;2270;6;5;403;13;3;1;1361;6;4;505;16;4;0;1883;3;0;222;12;5;80;5103;4;14;19;378;602;24;6;0;3608;8;4;7;503;590;23;7;0;2260;6;3;429;16;8;0;2277;6;1;450;15;9;2;1173;4;2;463;11
12.11.19;16:00:00;1;527;4313;0;2;3;2270;6;8;405;13;3;0;1361;6;6;507;16;4;0;1883;3;0;199;13;5;93;5096;4;20;26;378;602;24;6;56;3608;4;21;29;453;424;24;7;0;2260;6;0;475;16;8;1;2277;4;2;455;16;9;4;1172;3;5;471;11
12.11.19;15:55:00;1;622;4266;0;2;5;2270;6;10;411;13;3;1;1361;6;6;515;16;4;1;1883;3;1;199;13;5;112;5089;4;38;35;378;602;24;6;70;3603;4;30;36;453;423;24;7;1;2260;3;10;438;16;8;2;2277;3;10;441;16;9;0;1172;6;4;512;11
12.11.19;15:50:00;1;605;4217;0;2;7;2270;6;12;411;13;3;0;1361;6;0;548;16;4;5;1883;3;5;199;13;5;129;5079;4;48;45;378;602;24;6;78;3597;4;35;37;453;424;24;7;6;2260;6;9;472;16;8;2;2277;6;8;470;16;9;1;1172;6;4;406;8
12.11.19;15:45:00;1;346;4169;0;2;38;2269;6;59;371;13;3;7;1361;3;16;508;16;4;19;1883;3;20;199;13;5;147;5068;4;53;50;377;602;24;6;92;3591;4;46;52;453;424;24;7;5;2259;6;7;481;16;8;4;2277;6;7;485;16;9;0;1172;6;0;371;7
12.11.19;15:40:00;1;458;4140;0;2;62;2266;4;87;366;13;3;7;1360;6;13;533;16;4;26;1881;3;27;198;13;5;174;5056;4;71;60;378;602;24;6;110;3583;4;60;71;453;424;24;7;30;2259;6;40;417;17;8;24;2276;6;42;420;16;9;3;1172;6;6;538;12
12.11.19;15:35:00;1;568;4099;0;2;77;2261;4;102;373;13;3;6;1359;6;11;540;16;4;32;1879;3;33;198;13;5;208;5041;4;93;78;378;602;24;6;131;3573;4;68;78;452;423;24;7;43;2256;4;65;304;14;8;50;2274;4;88;423;16;9;9;1172;6;15;516;12
12.11.19;15:30:00;1;548;4053;0;2;100;2254;4;126;366;13;3;35;1359;6;54;503;16;4;68;1876;3;71;198;13;5;244;5024;4;107;101;377;602;24;6;155;3562;4;70;73;452;423;24;7;74;2252;4;109;387;17;8;76;2270;4;110;409;16;9;16;1171;3;25;522;12
12.11.19;15:25:00;1;541;4007;0;2;113;2246;4;142;366;13;3;63;1356;4;100;482;16;4;65;1871;3;68;198;13;5;274;5003;4;123;110;378;602;24;6;171;3549;4;66;67;453;424;24;7;95;2245;4;130;445;17;8;92;2264;4;132;453;16;9;9;1169;6;12;562;12
12.11.19;15:20:00;1;528;3961;0;2;112;2237;4;138;370;13;3;61;1351;4;99;464;16;4;72;1865;3;74;198;13;5;272;4980;4;120;111;378;602;24;6;170;3535;4;64;67;453;423;24;7;86;2238;4;128;430;17;8;90;2256;4;126;430;16;9;19;1168;6;27;522;12
12.11.19;15:15:00;1;251;3922;0;2;152;2227;4;182;383;13;3;87;1346;4;124;487;16;4;107;1859;3;111;220;13;5;347;4957;4;168;146;378;602;24;6;221;3520;4;115;117;453;424;24;7;129;2230;4;168;444;17;8;134;2249;4;169;433;16;9;51;1167;6;66;515;12
12.11.19;15:10:00;1;311;3901;0;2;179;2215;4;209;389;13;3;105;1338;4;144;504;16;4;137;1850;5;142;229;13;5;406;4928;4;192;173;389;602;24;6;255;3502;4;144;152;453;423;24;7;163;2219;4;190;401;17;8;164;2238;4;198;445;16;9;86;1163;4;112;490;12
12.11.19;15:05:00;1;208;3874;0;2;211;2200;4;245;382;13;3;125;1330;4;165;508;16;4;170;1839;5;177;228;13;5;481;4893;4;236;199;403;602;24;6;294;3480;4;134;134;453;424;24;7;198;2206;4;235;435;17;8;204;2224;4;239;441;16;9;107;1156;4;136;505;12
12.11.19;15:00:00;1;207;3857;0;2;217;2182;4;251;390;13;3;127;1319;4;168;518;16;4;174;1825;5;181;232;13;5;500;4853;4;254;205;406;602;24;6;305;3455;4;148;150;453;424;24;7;204;2189;4;247;472;17;8;220;2207;4;254;454;16;9;118;1147;4;142;504;12
12.11.19;14:55:00;1;207;3840;0;2;205;2164;4;237;381;13;3;119;1309;4;157;519;16;4;158;1810;5;164;231;13;5;469;4811;4;229;193;401;602;24;6;293;3430;4;138;136;453;424;24;7;196;2172;4;229;453;17;8;196;2189;4;232;458;16;9;105;1137;4;132;496;12
12.11.19;14:50:00;1;208;3822;0;2;197;2147;4;228;378;13;3;117;1299;4;157;506;16;4;156;1797;5;162;231;13;5;450;4772;4;214;184;409;602;24;6;278;3406;4;137;139;453;423;24;7;157;2156;4;183;356;13;8;198;2172;4;232;448;16;9;102;1128;4;131;485;12
12.11.19;14:45:00;1;207;3805;0;2;198;2130;4;228;373;13;3;118;1289;4;159;499;16;4;153;1784;5;160;228;13;5;451;4735;4;219;187;402;602;24;6;283;3382;4;152;153;453;423;24;7;189;2139;4;230;447;17;8;188;2156;4;234;451;16;9;103;1120;4;131;505;12
12.11.19;14:40:00;1;208;3788;0;2;212;2114;4;243;382;13;3;125;1279;4;163;514;16;4;162;1771;5;169;231;13;5;483;4697;4;237;203;407;620;24;6;296;3359;4;139;143;453;424;24;7;195;2124;4;234;433;17;8;210;2140;4;241;441;16;9;109;1111;4;137;501;12
12.11.19;14:35:00;1;245;3770;0;2;239;2096;4;272;389;13;3;142;1268;4;185;511;16;4;195;1758;5;203;231;13;5;536;4656;4;272;226;405;605;24;6;327;3334;4;151;151;453;424;24;7;235;2107;4;271;441;17;8;241;2123;4;277;445;16;9;125;1102;4;153;530;12
12.11.19;14:30:00;1;307;3749;0;2;253;2076;4;284;384;13;3;150;1257;4;191;502;16;4;208;1742;5;216;230;13;5;553;4611;4;277;240;397;646;24;6;338;3306;4;164;163;453;424;24;7;246;2088;4;287;442;17;8;261;2103;4;289;461;16;9;135;1091;4;162;521;12
12.11.19;14:25:00;1;251;3724;0;2;283;2055;4;317;383;13;3;175;1244;4;213;494;16;4;234;1724;5;243;235;13;5;629;4564;4;309;264;400;673;24;6;378;3278;4;193;194;453;423;24;7;270;2067;4;322;468;17;8;290;2081;4;327;466;16;9;151;1080;4;180;525;12
12.11.19;14:20:00;1;229;3703;0;2;271;2032;4;305;386;13;3;166;1229;4;206;507;16;4;225;1705;5;234;232;13;5;598;4512;4;296;252;394;622;24;6;369;3246;4;195;193;453;424;24;7;275;2045;4;308;471;17;8;281;2057;4;323;467;16;9;154;1068;4;181;520;12
12.11.19;14:15:00;1;207;3684;0;2;279;2009;4;309;381;13;3;172;1216;4;209;514;16;4;231;1686;5;240;233;13;5;625;4462;4;305;265;399;658;24;6;377;3215;4;192;188;453;424;24;7;275;2022;4;306;471;17;8;269;2033;4;308;467;16;9;144;1055;4;173;526;12
12.11.19;14:10:00;1;405;3665;0;2;262;1986;4;295;387;13;3;158;1201;4;199;512;16;4;220;1667;5;229;233;13;5;590;4410;4;293;254;401;634;24;6;361;3184;4;187;185;453;424;24;7;253;1999;4;298;469;16;8;261;2011;4;300;462;16;9;139;1043;4;169;526;12
12.11.19;14:05:00;1;382;3632;0;2;224;1964;4;256;377;13;3;135;1188;4;175;511;16;4;182;1648;5;189;230;13;5;506;4361;4;251;214;396;612;24;6;313;3154;4;153;155;453;424;24;7;218;1978;4;250;473;16;8;220;1989;4;259;473;16;9;121;1031;4;148;517;12
12.11.19;14:00:00;1;237;3601;0;2;183;1945;4;212;384;13;3;106;1177;4;145;504;16;4;147;1633;5;153;227;13;5;419;4319;4;202;183;378;602;24;6;268;3128;4;132;137;453;424;24;7;144;1959;4;178;458;16;8;148;1971;4;180;464;16;9;36;1021;4;46;542;11
12.11.19;13:55:00;1;246;3582;0;2;149;1930;4;176;372;13;3;79;1168;4;117;511;16;4;109;1621;5;114;226;13;5;362;4285;4;175;156;378;602;24;6;231;3106;4;123;128;453;424;24;7;107;1947;4;140;417;16;8;103;1958;4;139;450;16;9;9;1018;6;13;562;12
12.11.19;13:50:00;1;384;3561;0;2;136;1917;4;165;374;13;3;75;1161;4;114;502;16;4;84;1612;3;88;199;13;5;320;4255;4;150;124;378;602;24;6;204;3087;4;111;112;453;424;24;7;122;1938;4;158;464;17;8;119;1949;4;161;465;16;9;73;1017;4;95;482;12
12.11.19;13:45:00;1;312;3531;0;2;119;1906;4;145;374;13;3;63;1155;4;102;484;16;4;72;1605;3;74;198;13;5;303;4228;4;134;122;378;602;24;6;192;3070;4;112;112;453;424;24;7;83;1928;4;118;476;17;8;91;1939;4;130;463;16;9;18;1011;3;25;536;12